Wind_Speed
26 27 27 31 32 31 31 32 34 33 35 35 35 32 31 27 30 29 24 22 24 24 23 19 21 23 22 21 22 22 21 20 20 20 21 23 24 25 27 30 31 32 34
25 28 30 34 35 36 36 36 38 39 38 37 36 35 32 32 29 30 28 24 24 25 23 21 19 19 20 21 22 23 23 23 22 22 24 25 26 27 29 31 32 35 36
34 37 32 33 36 40 39 36 37 39 41 41 40 39 35 36 35 33 35 29 27 25 24 23 20 20 20 21 23 24 24 25 24 24 26 27 28 29 29 30 33 35 36
36 35 39 37 36 38 39 37 39 37 39 42 45 44 45 41 38 34 35 33 28 27 27 25 23 23 22 23 24 25 26 26 26 27 27 28 30 32 31 29 32 34 36
35 38 38 37 44 44 46 44 40 40 40 42 43 43 44 40 38 37 36 36 33 29 29 26 26 25 24 25 26 27 27 26 28 28 29 31 33 36 38 37 30 30 35
39 39 38 40 42 46 45 46 47 43 43 44 44 43 43 41 38 34 37 40 36 33 33 30 29 28 27 27 28 29 28 28 30 30 31 32 33 36 39 40 40 40 36
41 41 40 41 44 45 49 47 46 46 46 48 47 42 40 41 37 36 36 40 40 38 37 34 32 31 30 30 31 31 31 32 32 31 32 32 34 35 36 38 40 41 41
38 41 42 44 41 49 48 51 48 43 43 42 48 44 40 44 38 39 37 40 40 39 37 35 34 35 33 32 33 32 32 32 32 33 32 33 35 36 37 39 42 43 44
47 46 44 45 47 43 45 48 49 46 43 42 45 44 40 42 41 39 35 37 43 41 39 38 37 37 34 34 34 34 32 35 34 34 32 33 34 35 36 38 41 45 47
38 28 33 42 45 42 42 45 46 44 42 41 43 42 39 40 40 40 38 35 41 45 42 41 40 37 36 36 36 34 37 33 35 35 34 33 33 33 35 37 38 40 42
38 44 48 34 37 41 40 46 46 43 42 40 42 36 39 39 41 39 37 35 40 49 43 41 41 38 37 37 39 42 34 38 34 35 34 32 31 33 34 36 36 36 39
45 35 42 42 35 38 45 48 45 44 43 41 39 35 36 39 40 37 37 37 41 41 41 40 40 39 40 41 42 41 36 31 34 35 35 28 30 32 33 34 34 35 38
32 27 31 34 42 44 43 50 43 43 42 40 39 34 35 37 38 36 38 37 38 48 48 43 44 40 46 46 46 39 32 33 33 36 27 25 28 31 32 32 33 35 38
39 41 28 20 21 38 43 44 43 34 34 36 36 35 37 34 32 36 39 36 42 41 56 40 46 49 52 46 48 36 36 29 34 32 20 24 28 30 29 30 32 35 38
36 39 32 24 26 28 28 31 34 32 30 32 34 36 34 31 31 35 39 34 43 47 50 57 53 54 49 48 34 35 35 33 34 16 20 23 28 28 27 29 32 35 40
29 30 32 26 28 27 30 29 26 27 29 31 32 32 33 33 31 34 37 40 42 53 46 54 56 50 51 43 39 40 34 31 19 16 20 23 27 26 26 29 32 36 39
31 29 32 38 33 32 34 32 32 31 29 32 33 32 32 33 33 38 37 45 48 48 56 63 57 46 42 37 35 36 33 29 12 17 20 24 24 24 26 28 31 33 35
38 35 35 35 35 32 37 37 42 40 36 37 36 33 34 36 37 37 39 41 43 47 55 63 49 47 43 44 34 37 30 15 14 18 21 22 22 23 25 27 28 30 31
47 39 36 37 33 34 36 36 41 42 44 43 43 38 36 39 39 40 40 44 41 49 62 51 51 45 47 35 42 30 24 11 15 18 22 21 21 23 24 25 25 26 29
41 50 40 41 35 33 39 41 42 47 46 43 41 42 41 41 42 45 44 42 35 43 58 57 54 44 29 28 30 30 13 13 16 20 19 19 20 21 22 22 23 25 27
39 38 50 49 43 41 41 45 48 42 41 44 46 45 41 39 40 45 45 40 40 52 58 55 47 36 33 27 24 21 13 13 18 18 18 18 18 19 19 20 21 24 27
45 33 38 47 54 52 49 53 55 47 47 43 44 45 42 40 40 42 40 41 47 55 56 49 38 28 25 24 30 17 13 15 18 16 17 18 18 17 17 18 21 24 27
41 40 40 35 39 53 57 58 57 52 47 45 47 46 46 42 43 46 42 49 51 58 50 37 29 23 19 29 24 14 14 18 17 16 16 17 17 16 18 20 22 24 26
42 35 45 29 21 27 42 47 47 48 47 49 49 52 52 47 48 50 47 50 52 49 42 32 25 21 30 29 17 15 18 18 17 16 16 16 16 17 19 21 22 24 26
38 43 34 21 19 21 30 33 41 43 43 47 50 55 57 50 52 48 45 47 39 34 30 28 31 36 34 19 17 19 18 18 16 15 15 15 17 18 20 21 23 24 25
35 33 42 27 20 18 21 24 26 29 31 38 54 63 59 58 54 44 38 34 30 34 36 37 36 30 24 21 19 19 18 18 15 14 14 15 17 19 20 21 22 23 24
Wind_Direction
247 248 264 269 270 271 265 271 274 268 263 265 264 270 275 274 276 274 273 265 255 255 258 264 271 272 269 266 263 259 255 253 257 268 281 287 292 297 302 308 311 312 311
242 241 262 267 261 263 266 262 265 270 268 267 265 266 267 269 272 270 266 262 253 252 257 262 271 271 266 263 257 255 257 260 266 276 283 288 291 299 304 309 311 309 310
254 255 255 262 262 259 261 261 264 267 268 267 265 264 261 259 268 275 266 262 252 252 258 263 269 270 264 257 255 254 259 265 273 281 288 291 291 297 304 308 308 308 306
253 259 256 256 257 258 259 261 262 262 261 265 265 271 274 277 277 278 270 261 251 255 257 260 264 266 264 257 253 256 263 270 276 281 287 292 296 300 301 302 302 305 305
251 258 265 267 265 269 265 266 262 260 263 263 269 271 271 272 272 274 264 257 252 251 253 258 263 265 264 261 257 257 262 268 276 285 292 296 300 304 306 307 303 303 304
251 253 258 263 264 264 264 262 262 261 265 260 267 270 274 274 270 277 266 254 250 247 251 255 262 266 266 263 261 261 266 271 278 286 292 296 302 306 308 309 312 314 311
249 249 256 260 261 261 261 257 256 257 262 269 269 270 274 270 273 275 272 253 251 249 253 256 261 265 266 263 261 262 265 272 278 284 289 295 300 303 305 307 309 310 305
267 266 262 259 264 258 263 259 258 255 257 266 268 268 270 266 271 272 274 255 249 249 251 255 259 262 262 262 261 263 266 273 276 282 289 295 301 304 306 307 309 305 303
267 262 262 257 258 257 258 258 260 255 261 265 263 264 268 262 269 273 279 258 249 246 246 251 255 259 259 259 260 261 268 273 276 282 289 296 302 303 305 306 305 305 307
264 266 270 266 250 252 250 250 257 258 263 266 266 268 266 265 267 276 274 272 253 247 244 250 253 253 255 255 256 258 278 268 276 281 288 296 299 301 302 302 302 303 305
262 271 284 273 256 246 247 249 250 255 258 266 269 263 262 268 268 274 272 277 271 247 245 250 252 251 251 252 250 262 256 266 273 280 286 294 297 299 300 300 300 301 306
269 276 283 268 264 246 247 246 248 251 258 266 269 262 265 271 268 270 275 274 268 243 245 249 250 248 247 247 251 250 258 262 268 277 288 292 293 298 299 298 299 305 309
269 273 287 256 259 253 247 243 251 253 256 260 266 264 271 275 275 272 272 277 257 245 249 250 251 245 245 239 239 246 259 252 268 273 288 288 294 297 296 297 304 308 311
270 266 287 285 272 248 246 247 252 252 256 254 266 269 277 273 275 276 277 274 253 259 249 248 246 234 253 237 249 254 249 251 264 282 283 289 294 293 295 301 307 311 316
264 258 268 280 276 275 269 262 263 261 261 260 269 273 269 266 268 274 280 279 265 255 273 239 238 241 253 240 250 249 245 252 272 277 281 290 291 292 297 306 310 313 317
283 270 264 266 265 267 277 276 270 270 265 279 274 276 261 262 266 275 282 265 256 258 263 247 243 242 246 239 241 247 247 260 264 270 281 287 286 293 304 308 311 318 320
278 273 265 263 267 266 273 269 268 264 271 273 274 270 263 261 269 273 277 261 261 252 255 245 244 244 244 233 239 245 249 266 257 270 279 279 286 299 304 310 319 322 324
276 267 269 265 265 257 264 266 267 268 270 272 271 269 264 263 265 271 276 274 258 257 256 245 237 243 242 240 234 242 269 245 257 270 274 279 290 299 306 316 323 325 326
264 264 264 262 259 259 253 258 262 268 266 266 263 263 269 268 265 267 275 276 265 259 247 242 246 244 243 240 242 252 246 238 258 267 269 279 293 303 311 323 326 329 331
270 264 257 260 253 253 256 262 263 265 265 261 261 263 262 266 271 267 272 268 259 254 250 243 243 243 235 230 243 266 219 232 253 261 270 285 295 305 316 323 332 339 338
302 274 257 252 256 258 250 254 259 261 259 259 262 260 253 263 270 266 269 258 247 251 248 255 245 235 226 242 253 229 212 232 250 259 273 285 295 306 317 328 337 344 346
306 286 270 257 248 255 257 253 262 270 269 261 261 263 254 263 271 271 267 253 246 250 247 248 242 215 234 239 263 205 206 234 248 261 275 286 298 307 318 325 332 339 343
294 303 280 247 243 243 251 256 261 265 266 262 263 261 253 261 259 261 258 262 245 245 245 240 210 226 236 264 223 190 215 235 245 261 274 287 300 307 312 318 325 332 339
296 284 278 251 245 256 256 257 259 265 266 263 256 255 250 256 255 256 254 262 247 243 245 215 220 231 249 243 189 201 223 235 249 261 275 290 300 300 304 310 318 326 335
291 293 288 289 274 267 254 256 261 262 264 255 252 252 248 251 248 249 253 259 241 248 214 212 225 244 253 191 196 214 226 238 250 264 278 295 300 301 302 309 316 325 331
286 282 297 297 282 275 260 267 273 274 267 270 252 248 244 244 240 244 245 232 234 214 216 230 240 230 182 195 207 220 231 242 252 267 284 294 298 299 302 308 316 322 324
Height
3136 3138 3138 3137 3139 3141 3142 3142 3141 3143 3144 3146 3147 3149 3150 3151 3151 3152 3152 3152 3152 3152 3153 3154 3153 3153 3154 3154 3154 3154 3156 3157 3157 3157 3155 3154 3152 3150 3148 3144 3140 3137 3132
3132 3135 3137 3134 3134 3135 3135 3137 3137 3137 3138 3139 3141 3141 3142 3144 3145 3146 3146 3146 3147 3147 3148 3149 3149 3148 3149 3150 3150 3150 3151 3152 3152 3152 3150 3148 3147 3144 3141 3138 3134 3128 3124
3127 3129 3130 3129 3128 3128 3130 3131 3132 3132 3132 3133 3134 3135 3136 3137 3137 3139 3140 3140 3141 3142 3143 3143 3144 3144 3144 3144 3145 3145 3146 3146 3146 3146 3145 3141 3140 3138 3136 3132 3127 3122 3117
3120 3121 3123 3122 3119 3120 3123 3124 3124 3125 3126 3126 3125 3126 3128 3129 3131 3132 3134 3134 3134 3136 3137 3138 3139 3139 3139 3139 3140 3140 3140 3140 3139 3138 3136 3134 3132 3129 3130 3128 3122 3117 3112
3113 3114 3115 3116 3113 3112 3112 3115 3116 3118 3118 3116 3117 3119 3120 3122 3124 3124 3126 3127 3126 3128 3130 3133 3133 3134 3133 3133 3133 3134 3134 3133 3132 3130 3128 3126 3122 3118 3114 3113 3116 3114 3105
3103 3103 3105 3108 3106 3104 3103 3105 3106 3109 3108 3107 3109 3111 3111 3113 3116 3117 3117 3119 3120 3121 3123 3125 3126 3127 3127 3127 3127 3127 3127 3127 3125 3123 3120 3117 3114 3110 3104 3100 3096 3093 3094
3093 3094 3096 3097 3096 3093 3091 3094 3097 3100 3099 3099 3100 3102 3103 3105 3107 3108 3108 3110 3112 3113 3115 3117 3119 3120 3120 3120 3121 3120 3120 3119 3118 3116 3114 3110 3107 3104 3099 3094 3089 3086 3084
3084 3085 3086 3087 3085 3085 3081 3084 3086 3088 3089 3091 3090 3094 3095 3097 3099 3100 3100 3102 3103 3105 3107 3109 3110 3111 3112 3112 3112 3112 3112 3112 3111 3109 3106 3102 3099 3096 3091 3086 3080 3076 3073
3072 3071 3070 3071 3072 3071 3072 3073 3075 3078 3079 3081 3082 3083 3086 3088 3090 3091 3091 3093 3095 3096 3098 3100 3102 3103 3104 3104 3104 3104 3104 3103 3102 3100 3097 3095 3092 3088 3083 3077 3071 3066 3059
3059 3060 3059 3059 3060 3060 3062 3064 3065 3067 3071 3073 3073 3074 3078 3080 3081 3081 3082 3083 3086 3086 3088 3090 3092 3095 3096 3096 3095 3095 3094 3095 3093 3091 3089 3087 3084 3080 3075 3071 3066 3061 3055
3052 3050 3048 3048 3047 3048 3049 3054 3056 3059 3061 3063 3063 3068 3069 3069 3071 3072 3072 3073 3074 3075 3078 3081 3084 3085 3086 3086 3085 3084 3084 3084 3085 3082 3080 3078 3075 3071 3067 3064 3061 3056 3049
3041 3041 3038 3038 3037 3037 3039 3044 3048 3050 3053 3053 3056 3059 3060 3061 3061 3062 3064 3064 3063 3066 3069 3071 3074 3076 3076 3076 3074 3073 3072 3073 3075 3073 3072 3069 3067 3063 3061 3058 3054 3049 3043
3031 3030 3029 3028 3027 3029 3031 3036 3039 3043 3045 3045 3047 3049 3051 3052 3053 3053 3055 3056 3055 3056 3058 3059 3062 3064 3064 3062 3062 3060 3061 3066 3063 3064 3062 3061 3058 3056 3054 3051 3046 3041 3037
3020 3021 3020 3018 3016 3021 3025 3029 3031 3033 3036 3037 3039 3040 3041 3041 3043 3045 3045 3045 3046 3046 3047 3041 3047 3046 3049 3050 3051 3048 3054 3055 3054 3055 3054 3053 3051 3050 3048 3044 3039 3035 3029
3010 3011 3013 3013 3014 3016 3018 3019 3021 3024 3027 3029 3029 3031 3030 3032 3035 3037 3036 3036 3035 3035 3036 3029 3032 3032 3036 3040 3041 3041 3044 3045 3046 3046 3047 3046 3045 3044 3041 3037 3033 3028 3021
3001 3003 3005 3004 3004 3006 3011 3013 3014 3016 3019 3019 3019 3021 3021 3023 3026 3028 3026 3026 3027 3027 3027 3024 3022 3023 3024 3027 3032 3034 3036 3038 3038 3040 3041 3040 3038 3037 3034 3031 3027 3020 3013
2992 2992 2993 2996 3000 3000 3003 3004 3006 3008 3009 3010 3011 3013 3013 3016 3016 3017 3015 3016 3016 3016 3015 3014 3015 3015 3016 3022 3027 3027 3026 3031 3031 3033 3035 3034 3032 3031 3028 3026 3020 3013 3007
2983 2982 2983 2986 2984 2991 2993 2994 2997 2998 3000 3001 3002 3004 3005 3007 3007 3006 3007 3005 3006 3005 3005 3004 3000 3004 3006 3014 3019 3019 3021 3021 3026 3029 3030 3028 3027 3025 3023 3019 3014 3009 3003
2972 2973 2973 2974 2977 2978 2979 2981 2984 2987 2988 2989 2992 2993 2995 2996 2997 2997 2997 2995 2995 2995 2995 2994 2998 2997 3000 3008 3008 3014 3013 3016 3021 3024 3024 3022 3021 3020 3018 3013 3009 3004 2998
2963 2961 2962 2962 2963 2964 2966 2967 2970 2974 2977 2980 2983 2984 2986 2988 2987 2988 2986 2986 2985 2988 2987 2984 2987 2991 2997 3002 3001 3006 3006 3010 3016 3018 3018 3016 3016 3014 3011 3007 3004 2999 2994
2952 2947 2946 2949 2953 2956 2956 2955 2955 2958 2966 2970 2971 2974 2975 2977 2978 2978 2976 2976 2977 2977 2978 2979 2982 2986 2992 2994 2997 2996 3001 3005 3010 3011 3012 3011 3010 3008 3005 3002 2998 2994 2990
2939 2937 2933 2934 2940 2944 2944 2942 2941 2948 2951 2954 2959 2962 2965 2965 2967 2967 2966 2967 2968 2967 2967 2970 2974 2980 2982 2984 2989 2991 2995 3001 3004 3005 3005 3004 3003 3002 2999 2996 2993 2990 2985
2926 2925 2923 2919 2922 2928 2930 2932 2933 2934 2937 2943 2946 2948 2951 2953 2955 2955 2955 2955 2956 2954 2957 2963 2970 2974 2974 2980 2981 2985 2991 2995 2997 2999 2999 2999 2997 2995 2994 2991 2989 2985 2982
2916 2914 2915 2912 2911 2912 2915 2918 2920 2923 2927 2929 2932 2935 2937 2939 2940 2941 2941 2941 2940 2945 2951 2958 2963 2966 2971 2973 2976 2982 2986 2990 2992 2993 2994 2994 2992 2991 2989 2987 2984 2981 2976
2907 2904 2905 2902 2899 2904 2905 2906 2909 2912 2913 2916 2919 2922 2925 2927 2927 2927 2927 2928 2936 2944 2949 2954 2957 2962 2965 2967 2973 2978 2981 2984 2986 2988 2988 2987 2986 2985 2984 2981 2979 2975 2971
2899 2898 2895 2894 2894 2892 2896 2898 2899 2901 2905 2908 2907 2907 2908 2910 2912 2915 2919 2929 2936 2940 2944 2948 2952 2954 2958 2964 2969 2973 2977 2978 2980 2981 2981 2981 2980 2979 2978 2975 2972 2969 2967